Corpus Christi, TX

1:19 PM CDT on May 27, 2017 (GMT -0500)
Corpus Christi International

Weather History for KCRP - November, 2014

Change the Weather History Date:

Friday, November 21, 2014

  Actual Average Record
Temperature  
Mean Temperature 72 °F 64 °F  
Max Temperature 79 °F 74 °F 91 °F (1996)
Min Temperature 65 °F 54 °F 32 °F (1969)
Degree Days  
Heating Degree Days 0 4  
Month to date heating degree days 135 47  
Since 1 July heating degree days 135 57  
Cooling Degree Days 7 3  
Month to date cooling degree days 42 99  
Year to date cooling degree days 3623 3450  
Growing Degree Days 22 (Base 50)    
Moisture  
Dew Point 66 °F    
Average Humidity 80    
Maximum Humidity 93    
Minimum Humidity 67    
Precipitation  
Precipitation 0.01 in 0.05 in 2.07 in (1982)
Month to date precipitation 2.21 1.52  
Year to date precipitation 27.69 29.48  
Snow  
Snow 0.00 in - - ()
Month to date snowfall 0.0  
Since 1 July snowfall 0.0  
Since 1 September snowfall 0.0  
Snow Depth 0.00 in    
Sea Level Pressure  
Sea Level Pressure 30.04 in    
Wind  
Wind Speed 12 mph (SSE)    
Max Wind Speed 29 mph    
Max Gust Speed 36 mph    
Visibility 10 miles    
Events Rain    
T = Trace of Precipitation, MM = Missing Value Source: NWS Daily Summary

Daily Weather History Graph

Daily Weather History Graph

Search for Another Location

Airport or City:

Trip Planner

Search our weather history database for the weather conditions in past years. The results will help you decide how hot, cold, wet, or windy it might be!

Date:

Astronomy

Nov. 21, 2014 Rise Set
Actual Time 6:55 AM CST 5:35 PM CST
Civil Twilight 6:30 AM CST 6:00 PM CST
Nautical Twilight 6:02 AM CST 6:29 PM CST
Astronomical Twilight 5:34 AM CST 6:57 PM CST
Moon 5:59 AM CST (11/21) 5:16 PM CST (11/21)
Length of Visible Light 11h 29m
Length of Day
10h 39m
Waning Crescent, 1% of the Moon is Illuminated
Nov 21
Waning Crescent
Nov 22
New
Nov 29
First Quarter
Dec 6
Full
Dec 14
Last Quarter

Hourly Weather History & Observations

Time (CST) Temp. Dew Point Humidity Pressure Visibility Wind Dir Wind Speed Gust Speed Precip Events Conditions
12:51 AM 66.0 °F 64.0 °F 93% 30.04 in 10.0 mi South 8.1 mph - 0.00 in   Mostly Cloudy
1:51 AM 64.9 °F 63.0 °F 93% 30.04 in 10.0 mi South 4.6 mph - N/A   Partly Cloudy
2:51 AM 64.9 °F 63.0 °F 93% 30.03 in 10.0 mi South 5.8 mph - N/A   Overcast
3:51 AM 66.0 °F 64.0 °F 93% 30.03 in 9.0 mi South 5.8 mph - 0.00 in   Overcast
4:51 AM 66.0 °F 64.0 °F 93% 30.03 in 9.0 mi South 5.8 mph - 0.01 in   Overcast
5:51 AM 66.0 °F 64.9 °F 96% 30.04 in 7.0 mi SSE 3.5 mph - 0.00 in Rain Light Rain
6:51 AM 66.0 °F 64.0 °F 93% 30.05 in 8.0 mi SE 3.5 mph - 0.00 in   Overcast
7:51 AM 66.9 °F 64.9 °F 93% 30.06 in 8.0 mi SE 4.6 mph - N/A   Mostly Cloudy
8:51 AM 71.1 °F 66.9 °F 87% 30.08 in 10.0 mi SSE 8.1 mph - N/A   Overcast
9:51 AM 73.0 °F 68.0 °F 84% 30.09 in 10.0 mi South 10.4 mph - N/A   Mostly Cloudy
10:11 AM 73.0 °F 68.0 °F 84% 30.09 in 10.0 mi South 9.2 mph - N/A   Overcast
10:51 AM 75.9 °F 66.9 °F 74% 30.09 in 10.0 mi SSE 18.4 mph 25.3 mph N/A   Overcast
11:42 AM 77.0 °F 66.9 °F 71% 30.07 in 10.0 mi SSE 18.4 mph 27.6 mph N/A   Overcast
11:51 AM 77.0 °F 66.0 °F 69% 30.06 in 10.0 mi SSE 20.7 mph 27.6 mph N/A   Overcast
12:51 PM 79.0 °F 66.9 °F 66% 30.04 in 10.0 mi SSE 21.9 mph 29.9 mph N/A   Mostly Cloudy
1:51 PM 78.1 °F 66.9 °F 68% 30.01 in 10.0 mi SSE 25.3 mph 33.4 mph N/A   Mostly Cloudy
2:51 PM 77.0 °F 66.0 °F 69% 30.00 in 10.0 mi SSE 24.2 mph 32.2 mph N/A   Mostly Cloudy
3:51 PM 75.9 °F 66.0 °F 71% 30.00 in 10.0 mi SSE 24.2 mph 29.9 mph N/A   Mostly Cloudy
4:51 PM 73.9 °F 66.9 °F 79% 30.01 in 10.0 mi SSE 13.8 mph - N/A   Mostly Cloudy
5:51 PM 72.0 °F 66.0 °F 81% 30.00 in 10.0 mi SE 13.8 mph - N/A   Mostly Cloudy
6:51 PM 71.1 °F 66.0 °F 84% 30.02 in 10.0 mi SSE 10.4 mph - N/A   Mostly Cloudy
7:51 PM 72.0 °F 66.0 °F 81% 30.03 in 10.0 mi SE 11.5 mph - N/A   Overcast
8:51 PM 72.0 °F 66.0 °F 81% 30.04 in 10.0 mi SE 9.2 mph - N/A   Overcast
9:16 PM 72.0 °F 66.0 °F 81% 30.05 in 10.0 mi SE 9.2 mph - N/A   Overcast
9:45 PM 71.6 °F 66.2 °F 83% 30.06 in 10.0 mi SSE 9.2 mph - 0.00 in   Mostly Cloudy
9:51 PM 71.1 °F 66.0 °F 84% 30.06 in 10.0 mi SE 8.1 mph - 0.00 in   Overcast
10:51 PM 71.1 °F 66.0 °F 84% 30.06 in 10.0 mi SE 11.5 mph - N/A   Mostly Cloudy
11:51 PM 71.1 °F 66.0 °F 84% 30.04 in 10.0 mi SE 10.4 mph - N/A   Mostly Cloudy